Regional Weather Roundup
Issued by NWS

Home | Current Version | Previous Version | Graphics & Text | Print | Product List | Glossary Off
Versions: 1 2 3 4 5 6 7 8 9 10 11 12 13 14 15 16 17 18 19 20 21 22 23 24 25 26 27 28 29 30 31 32 33 34 35 36 37 38 39 40 41 42 43 44 45 46 47 48 49 50

000
ASUS43 KDTX 050110
RWRMI
MICHIGAN HOURLY REGIONAL WEATHER ROUNDUP
NATIONAL WEATHER SERVICE DETROIT/PONTIAC MI
900 PM EDT WED MAY 04 2016

NOTE: "FAIR" INDICATES FEW OR NO CLOUDS BELOW 12,000 FEET WITH NO
SIGNIFICANT WEATHER AND/OR OBSTRUCTION TO VISIBILITY.

MIZ047>049-052>055-059>063-066>070-074>076-081>083-050200-
SOUTHEAST LOWER MICHIGAN

CITY           SKY/WX    TMP DP  RH WIND       PRES   REMARKS
ADRIAN         CLOUDY    45  40  82 NW5       29.68R
ALMA           RAIN      46  45  97 N12       29.74R
ANN ARBOR      CLOUDY    46  41  82 W5        29.67R
BAD AXE        CLOUDY    44  41  88 N7        29.74R
CARO           CLOUDY    45  43  91 N10       29.72R
DETROIT CITY   LGT RAIN  50  47  89 E3        29.69R
DETROIT        LGT RAIN  49  45  86 W5        29.68R
FLINT          LGT RAIN  53  48  83 NE7       29.70R
GROSSE ILE     DRIZZLE   50  46  87 CALM      29.66R
HILLSDALE      CLOUDY    40  37  91 W6        29.66S FOG
HOWELL         CLOUDY    46  46  97 CALM      29.68R FOG

CITY           SKY/WX    TMP DP  RH WIND       PRES   REMARKS
JACKSON        CLOUDY    42  41  96 S3        29.66R
LAMBERTVILLE   CLOUDY    47  44  87 W7        29.69R
LANSING        LGT RAIN  49  47  93 NE13      29.67R FOG
LAPEER         DRIZZLE   50  47  91 CALM      29.69R
MASON          CLOUDY    45  42  92 CALM      29.67R
MONROE         CLOUDY    49  43  81 W10       29.67R
MT. CLEMENS    CLOUDY    50  49  98 SE3       29.68R
PONTIAC        LGT RAIN  49  47  93 E9        29.67R
PORT HOPE        N/A     44  41  89 NW9       29.73R
PORT HURON     CLOUDY    52  46  82 CALM      29.69R
TRI CITIES     CLOUDY    50  46  86 N14       29.75R
MIDLAND        DRIZZLE   47  46  95 N7        29.75R
TROY           RAIN      50  49  95 E5        29.70R
SAGINAW HB     DRIZZLE   46  45  93 N13       29.73R
$$
MIZ043>046-050>051-056>058-064>065-071>073-077>080-050200-
SOUTHWEST LOWER MICHIGAN

CITY           SKY/WX    TMP DP  RH WIND       PRES   REMARKS
BATTLE CREEK   LGT RAIN  43  41  93 NW13      29.66S
BENTON HARBOR  LGT RAIN  41  38  89 NW9G20    29.78R
BIG RAPIDS     LGT RAIN  42  38  87 N14G22    29.77R
COLDWATER      LGT RAIN  40  40 100 W8        29.66S WCI  35
FREMONT        RAIN      41  40  95 N12G21    29.78R
HOLLAND        LGT RAIN N/A N/A N/A N10G21    29.76R
GRAND RAPIDS   LGT RAIN  44  41  89 N17       29.72R FOG
IONIA          LGT RAIN  45  44  95 N14G21    29.69R
KALAMAZOO      LGT RAIN  42  38  85 NW17G24   29.68S
LUDINGTON      CLOUDY    41  34  76 N16G24    29.84R
MARSHALL       CLOUDY    44  43  95 CALM      29.64R
MOUNT PLEASANT CLOUDY    46  44  94 N10         N/A
MUSKEGON       LGT RAIN  42  37  82 N15       29.80R
SOUTH HAVEN    CLOUDY    40  39  96 N16G25    29.75S WCI  32
$$
MIZ016>042-050200-
NORTHERN LOWER MICHIGAN

CITY           SKY/WX    TMP DP  RH WIND       PRES   REMARKS
ALPENA         CLOUDY    45  41  86 N9        29.81R
BEAVER ISLAND  CLOUDY    43  35  73 N9        29.89R
BELLAIRE       CLOUDY    45  36  70 N6        29.85R
CADILLAC       DRIZZLE   39  37  91 N13       29.80R WCI  32
CHARLEVOIX     CLOUDY    42  36  80 N9        29.89R
FRANKFORT      CLOUDY    42  35  75 N14G23    29.87R
GAYLORD        CLOUDY    43  39  86 VRB3G16   29.82R
GRAYLING       DRIZZLE   43  41  93 N9        29.82R
HARBOR SPRINGS CLOUDY    45  36  69 N6        29.85R
HOUGHTON LAKE  CLOUDY    43  40  89 N12G22    29.79R
MANISTEE       CLOUDY    43  30  61 N15G22    29.86R
OSCODA         PTCLDY    48  43  82 N13G20    29.75S
PELLSTON       CLOUDY    46  37  71 N9        29.86R
ROGERS CITY    DRIZZLE   42  40  91 NW12      29.83R
TRAVERSE CITY  CLOUDY    45  35  68 N10G20    29.85R
$$
MIZ007>008-015-050200-
EASTERN UPPER MICHIGAN

CITY           SKY/WX    TMP DP  RH WIND       PRES   REMARKS
KINROSS          N/A     41  39  93 NW7       29.87R
MACKINAC ISLAN CLOUDY    43  37  79 N13       29.85R
NEWBERRY       CLOUDY    41  32  72 NW12      29.89R
S. S. MARIE    LGT RAIN  44  39  82 N8        29.87R
MUNISING         N/A     39  34  82 NW13      29.95R WCI  31
$$
MIZ004>006-011>014-085-050200-
CENTRAL UPPER MICHIGAN

CITY           SKY/WX    TMP DP  RH WIND       PRES   REMARKS
MANISTIQUE     CLEAR     39  32  75 N14G21    29.90R WCI  31
ESCANABA         N/A    N/A N/A N/A MISG        N/A
MENOMINEE      CLEAR     43  30  61 N12       29.95R
SAWYER-GWINN   CLEAR     37  28  70 N14       29.95S WCI  29
$$
MIZ001>003-009>011-084-050200-
WESTERN UPPER MICHIGAN

CITY           SKY/WX    TMP DP  RH WIND       PRES   REMARKS
IRON MOUNTAIN  CLOUDY    42  30  62 N13       29.95R
HOUGHTON       CLEAR     41  31  67 NW7       29.97R
COPPER HARBOR    N/A     41  35  79 N6        29.98R
IRONWOOD         N/A     46  30  53 N3        29.96R
$$

ABBREVIATIONS USED IN REMARKS
   TC - TEMPERATURE IN CELSIUS
  WCI - WIND CHILL INDEX
   HX - HEAT INDEX
  VSB - VISIBILITY





USA.gov is the U.S. government's official web portal to all federal, state and local government web resources and services.